�N����,����,�~����,�C��,���x,�C��,����,���ϕ���,�ő�u�ԕ���,�ő厞����,���˗�,�I�_���x,�n�����x,�ő啗���N��,DTYPE
"20/01/16","00:10",0.0,3.8,93.9,1017.1,317.2,2.2,3.3,312.7,0.00,2.9,6.8,"00:05:04",1
"20/01/16","00:20",0.0,3.8,93.9,1017.3,308.3,1.8,2.6,339.2,0.00,2.9,6.7,"00:10:24",1
"20/01/16","00:30",0.0,3.6,93.9,1016.8,303.6,0.5,1.0,303.7,0.00,2.8,6.8,"00:25:18",1
"20/01/16","00:40",0.0,3.4,93.9,1017.1,313.9,1.2,2.0,320.5,0.00,2.6,6.5,"00:33:36",1
"20/01/16","00:50",0.0,3.4,93.9,1017.1,326.9,2.1,3.2,330.7,0.00,2.6,6.8,"00:44:38",1
"20/01/16","01:00",0.0,3.2,94.0,1016.6,332.8,2.1,2.9,341.7,0.00,2.4,6.6,"00:54:14",1
"20/01/16","01:10",0.0,3.1,94.0,1017.1,337.0,1.6,2.5,348.0,0.00,2.3,6.5,"01:08:48",1
"20/01/16","01:20",0.0,2.9,94.0,1016.8,336.1,1.6,2.8,329.5,0.00,2.1,6.5,"01:10:48",1
"20/01/16","01:30",0.0,2.7,94.1,1016.6,336.6,1.8,3.2,335.6,0.00,1.9,6.4,"01:27:52",1
"20/01/16","01:40",0.0,2.5,94.2,1016.6,330.3,1.7,3.1,322.3,0.00,1.7,6.5,"01:30:24",1
"20/01/16","01:50",0.0,2.4,94.3,1016.6,323.2,1.5,2.5,319.3,0.00,1.6,6.6,"01:42:48",1
"20/01/16","02:00",0.0,2.2,94.4,1016.6,312.3,2.1,3.3,324.7,0.00,1.4,6.5,"01:56:32",1
"20/01/16","02:10",0.0,2.2,94.6,1016.6,327.8,2.5,3.9,339.8,0.00,1.5,6.5,"02:05:20",1
"20/01/16","02:20",0.0,2.2,94.7,1016.6,315.0,2.1,3.2,332.5,0.00,1.5,6.4,"02:11:04",1
"20/01/16","02:30",0.0,2.4,94.8,1016.6,305.7,1.8,3.1,335.3,0.00,1.7,6.4,"02:20:02",1
"20/01/16","02:40",0.0,2.9,94.8,1016.8,328.5,3.0,4.3,335.3,0.00,2.2,6.3,"02:33:12",1
"20/01/16","02:50",0.0,2.8,94.8,1017.1,326.5,2.3,4.2,335.0,0.00,2.1,6.3,"02:44:40",1
"20/01/16","03:00",0.0,2.7,94.9,1017.1,329.0,1.0,2.0,332.9,0.00,2.0,6.3,"02:50:32",1
"20/01/16","03:10",0.0,2.5,94.9,1017.1,294.3,1.2,1.9,308.9,0.00,1.8,6.2,"03:08:16",1
"20/01/16","03:20",0.0,2.1,95.1,1017.1,314.3,2.5,3.4,323.5,0.00,1.4,6.2,"03:18:40",1
"20/01/16","03:30",0.0,1.9,95.2,1017.1,302.5,1.8,2.6,315.2,0.00,1.3,6.2,"03:21:12",1
"20/01/16","03:40",0.0,1.8,95.3,1017.1,314.6,1.6,2.6,312.9,0.00,1.2,6.2,"03:39:44",1
"20/01/16","03:50",0.0,1.5,95.4,1016.6,290.5,2.2,3.2,311.4,0.00,0.9,6.2,"03:47:44",1
"20/01/16","04:00",0.0,1.3,95.6,1016.4,307.5,2.2,2.8,324.0,0.00,0.7,6.1,"03:58:40",1
"20/01/16","04:10",0.0,1.1,95.8,1016.4,305.8,2.3,4.1,314.0,0.00,0.5,6.0,"04:09:44",1
"20/01/16","04:20",0.0,1.3,95.9,1016.6,322.0,3.4,4.5,317.9,0.00,0.8,6.0,"04:18:16",1
"20/01/16","04:30",0.0,1.6,95.9,1016.1,325.1,3.9,4.3,331.7,0.00,1.1,6.1,"04:27:52",1
"20/01/16","04:40",0.0,1.5,96.0,1016.1,328.2,3.6,5.0,339.1,0.00,1.0,5.9,"04:30:08",1
"20/01/16","04:50",0.0,1.7,96.1,1016.6,324.2,2.2,3.3,340.4,0.00,1.2,6.0,"04:42:56",1
"20/01/16","05:00",0.0,1.8,96.1,1016.6,322.2,2.1,3.4,307.7,0.00,1.3,6.0,"04:59:04",1
"20/01/16","05:10",0.0,2.0,96.2,1016.8,324.0,2.5,3.9,327.1,0.00,1.5,5.8,"05:07:52",1
"20/01/16","05:20",0.0,1.7,96.1,1016.8,327.1,3.1,4.2,327.9,0.00,1.2,5.9,"05:16:24",1
"20/01/16","05:30",0.0,1.4,96.3,1017.1,329.2,3.4,4.9,335.8,0.00,0.9,5.9,"05:20:08",1
"20/01/16","05:40",0.0,1.5,96.4,1016.8,329.1,3.6,5.0,327.8,0.00,1.0,5.6,"05:39:20",1
"20/01/16","05:50",0.0,1.9,96.3,1016.8,325.9,4.9,6.0,327.3,0.00,1.4,5.7,"05:48:42",1
"20/01/16","06:00",0.0,1.8,96.3,1017.1,321.9,3.5,5.4,337.7,0.00,1.3,5.7,"05:50:16",1
"20/01/16","06:10",0.0,1.9,96.3,1017.5,317.7,4.4,5.8,324.5,0.00,1.4,6.1,"06:03:04",1
"20/01/16","06:20",0.0,1.7,96.3,1017.5,299.6,2.5,4.8,333.0,0.00,1.2,5.7,"06:10:56",1
"20/01/16","06:30",0.0,1.5,96.4,1017.5,301.7,1.8,3.2,326.2,0.00,1.0,5.7,"06:27:20",1
"20/01/16","06:40",0.0,1.4,96.5,1017.5,268.3,1.1,3.6,323.0,0.00,0.9,5.7,"06:30:40",1
"20/01/16","06:50",0.0,1.3,96.5,1017.5,309.0,1.5,2.7,304.8,0.00,0.8,5.8,"06:45:20",1
"20/01/16","07:00",0.0,1.4,96.6,1017.8,314.2,2.2,2.9,323.4,0.00,1.0,5.7,"06:54:56",1
"20/01/16","07:10",0.0,1.4,96.6,1017.8,324.7,1.8,2.7,321.9,0.00,1.0,5.9,"07:00:02",1
"20/01/16","07:20",0.0,1.4,96.7,1017.8,312.7,2.2,2.9,326.3,0.00,1.0,5.3,"07:18:48",1
"20/01/16","07:30",0.0,1.6,96.7,1017.5,318.6,2.6,4.2,315.8,0.00,1.2,5.6,"07:28:16",1
"20/01/16","07:40",0.0,1.6,96.7,1018.0,320.0,2.6,5.2,327.6,0.00,1.2,5.6,"07:32:00",1
"20/01/16","07:50",0.0,1.4,96.8,1018.0,315.1,2.2,2.9,331.4,0.00,1.0,5.7,"07:42:24",1
"20/01/16","08:00",0.0,1.2,96.8,1018.0,316.4,2.3,2.9,334.2,0.00,0.8,5.5,"07:52:24",1
"20/01/16","08:10",0.0,1.1,97.0,1017.8,295.2,1.7,2.2,319.7,0.00,0.7,5.4,"08:03:28",1
"20/01/16","08:20",0.0,1.0,97.1,1017.5,296.0,2.3,3.9,324.2,0.00,0.6,5.5,"08:15:28",1
"20/01/16","08:30",0.0,1.2,97.2,1018.0,287.5,2.0,2.9,313.3,0.00,0.8,5.6,"08:29:44",1
"20/01/16","08:40",0.0,1.7,97.2,1018.0,320.2,3.6,5.2,323.8,0.01,1.3,5.6,"08:36:08",1
"20/01/16","08:50",0.0,2.1,97.1,1018.7,324.6,2.5,4.7,330.3,0.02,1.7,5.6,"08:42:32",1
"20/01/16","09:00",0.0,2.4,97.0,1018.2,318.8,2.3,3.9,339.1,0.04,2.0,5.7,"08:58:42",1
"20/01/16","09:10",0.0,2.8,97.0,1018.7,327.5,3.2,4.2,325.6,0.07,2.4,5.4,"09:09:46",1
"20/01/16","09:20",0.0,3.3,97.0,1018.7,316.6,2.6,4.3,324.4,0.10,2.9,5.6,"09:13:26",1
"20/01/16","09:30",0.0,3.9,96.8,1019.0,286.1,1.8,2.6,303.1,0.11,3.5,5.8,"09:20:08",1
"20/01/16","09:40",0.0,4.0,96.4,1019.4,305.3,2.2,3.5,327.1,0.09,3.5,6.0,"09:34:02",1
"20/01/16","09:50",0.0,4.0,96.4,1019.2,292.0,2.0,3.2,301.6,0.12,3.5,5.6,"09:46:54",1
"20/01/16","10:00",0.0,4.3,96.2,1019.7,300.2,2.6,4.1,336.5,0.18,3.8,6.0,"09:57:24",1
"20/01/16","10:10",0.0,4.6,96.0,1019.7,292.0,2.0,3.3,314.2,0.14,4.1,6.2,"10:01:04",1
"20/01/16","10:20",0.0,4.6,95.7,1020.1,265.8,1.6,2.2,250.7,0.13,4.0,6.2,"10:15:56",1
"20/01/16","10:30",0.0,5.0,95.4,1020.4,275.7,1.7,3.1,310.9,0.19,4.4,6.3,"10:22:02",1
"20/01/16","10:40",0.0,5.2,95.2,1020.6,275.9,1.0,2.2,249.1,0.19,4.5,6.5,"10:36:48",1
"20/01/16","10:50",0.0,5.4,94.8,1020.6,261.3,1.6,2.6,249.1,0.24,4.7,6.6,"10:42:48",1
"20/01/16","11:00",0.0,5.8,93.8,1020.4,256.2,0.7,1.9,248.2,0.27,4.9,6.7,"10:59:44",1
"20/01/16","11:10",0.0,6.2,92.9,1020.6,270.2,1.2,2.1,272.7,0.28,5.2,6.7,"11:04:24",1
"20/01/16","11:20",0.0,6.5,92.6,1020.6,287.1,1.0,2.0,312.5,0.23,5.4,7.0,"11:17:12",1
"20/01/16","11:30",0.0,6.3,91.6,1020.6,117.4,0.7,1.6,271.4,0.16,5.1,7.2,"11:20:32",1
"20/01/16","11:40",0.0,6.4,90.7,1020.4,283.8,0.8,1.6,285.0,0.14,5.0,7.3,"11:37:28",1
"20/01/16","11:50",0.0,6.3,89.7,1020.1,320.0,0.6,1.2,338.0,0.13,4.8,7.6,"11:45:52",1
"20/01/16","12:00",0.0,6.6,88.9,1019.7,306.3,0.7,1.4,341.1,0.19,4.9,7.7,"11:50:40",1
"20/01/16","12:10",0.0,7.1,87.5,1019.2,263.2,1.1,2.2,241.7,0.27,5.2,7.5,"12:04:40",1
"20/01/16","12:20",0.0,7.7,85.6,1019.2,288.8,0.8,2.2,341.7,0.31,5.5,7.7,"12:19:44",1
"20/01/16","12:30",0.0,8.0,83.0,1019.0,322.4,0.8,1.6,359.8,0.34,5.3,7.8,"12:29:36",1
"20/01/16","12:40",0.0,8.8,80.0,1018.7,294.0,0.8,1.9,347.4,0.37,5.6,8.2,"12:32:00",1
"20/01/16","12:50",0.0,8.4,76.8,1018.5,229.0,1.3,3.2,235.4,0.26,4.6,8.2,"12:49:52",1
"20/01/16","13:00",0.0,8.4,75.8,1018.5,237.8,1.2,2.4,246.6,0.24,4.4,8.5,"12:50:08",1
"20/01/16","13:10",0.0,8.4,76.0,1018.2,186.8,1.5,3.4,244.7,0.24,4.5,8.5,"13:07:44",1
"20/01/16","13:20",0.0,8.9,76.1,1018.0,225.9,1.6,2.8,199.7,0.37,5.0,8.6,"13:17:04",1
"20/01/16","13:30",0.0,9.2,74.6,1017.8,210.4,1.2,2.9,131.7,0.37,5.0,8.9,"13:22:24",1
"20/01/16","13:40",0.0,9.1,72.5,1017.5,154.4,1.5,3.5,213.1,0.34,4.5,9.1,"13:33:36",1
"20/01/16","13:50",0.0,9.1,72.1,1017.3,277.8,1.2,3.6,240.9,0.21,4.4,9.2,"13:49:20",1
"20/01/16","14:00",0.0,9.5,71.6,1017.1,238.8,1.1,2.4,237.3,0.28,4.7,9.1,"13:50:16",1
"20/01/16","14:10",0.0,9.3,70.2,1016.8,306.1,1.1,2.2,345.5,0.19,4.2,9.6,"14:04:32",1
"20/01/16","14:20",0.0,9.4,69.9,1016.8,233.4,1.2,2.2,300.9,0.22,4.2,9.3,"14:12:00",1
"20/01/16","14:30",0.0,9.3,69.8,1016.6,258.4,1.5,3.1,237.6,0.16,4.1,9.4,"14:22:56",1
"20/01/16","14:40",0.0,9.4,69.9,1016.8,207.0,1.1,2.7,208.0,0.18,4.2,9.5,"14:34:32",1
"20/01/16","14:50",0.0,9.5,69.3,1016.6,239.9,1.5,3.2,214.4,0.18,4.2,9.7,"14:46:40",1
"20/01/16","15:00",0.0,9.7,68.7,1016.6,238.0,1.0,2.0,215.3,0.16,4.3,9.6,"14:53:28",1
"20/01/16","15:10",0.0,9.7,68.4,1016.4,171.1,0.8,2.0,224.1,0.14,4.2,9.6,"15:01:36",1
"20/01/16","15:20",0.0,9.7,67.3,1016.1,235.8,1.6,2.5,211.7,0.16,4.0,9.7,"15:13:12",1
"20/01/16","15:30",0.0,9.6,67.1,1015.9,249.3,1.6,2.7,240.1,0.15,3.8,9.6,"15:29:28",1
"20/01/16","15:40",0.0,9.8,66.4,1015.9,267.7,1.0,1.8,328.0,0.11,3.9,9.8,"15:30:02",1
"20/01/16","15:50",0.0,9.8,66.0,1016.4,265.2,1.1,2.5,242.5,0.10,3.8,9.7,"15:46:48",1
"20/01/16","16:00",0.0,9.6,65.9,1016.4,233.5,0.7,1.7,265.8,0.08,3.6,9.8,"15:50:24",1
"20/01/16","16:10",0.0,9.5,66.1,1015.9,237.8,1.0,2.4,223.7,0.07,3.5,9.6,"16:04:24",1
"20/01/16","16:20",0.0,9.5,66.3,1016.1,246.4,0.7,1.8,246.7,0.07,3.6,9.5,"16:10:08",1
"20/01/16","16:30",0.0,9.6,66.1,1016.1,261.0,0.6,1.6,291.1,0.06,3.6,9.7,"16:27:12",1
"20/01/16","16:40",0.0,9.5,66.4,1016.6,275.9,1.1,1.8,287.9,0.05,3.6,9.4,"16:38:48",1
"20/01/16","16:50",0.0,9.2,66.4,1016.4,266.8,1.5,2.2,257.2,0.02,3.3,9.6,"16:43:20",1
"20/01/16","17:00",0.0,8.9,66.7,1016.4,266.1,1.3,1.9,249.1,0.00,3.1,9.7,"16:59:12",1
"20/01/16","17:10",0.0,8.8,67.1,1016.1,293.7,1.5,2.1,318.1,0.01,3.1,9.4,"17:09:18",1
"20/01/16","17:20",0.0,8.6,68.6,1016.1,320.8,1.8,2.2,329.9,0.00,3.2,9.4,"17:15:52",1
"20/01/16","17:30",0.0,8.0,70.6,1015.9,320.4,1.6,2.0,325.9,0.00,3.0,9.4,"17:22:08",1
"20/01/16","17:40",0.0,7.6,72.9,1016.1,323.4,1.8,2.5,321.7,0.00,3.1,9.3,"17:37:44",1
"20/01/16","17:50",0.0,7.2,74.4,1015.6,289.2,1.6,2.2,324.4,0.00,3.0,9.3,"17:40:24",1
"20/01/16","18:00",0.0,7.2,76.1,1016.1,307.5,2.1,2.9,316.0,0.00,3.3,9.1,"17:53:44",1
"20/01/16","18:10",0.0,7.1,77.3,1015.9,305.3,1.7,2.8,320.9,0.00,3.4,9.0,"18:06:08",1
"20/01/16","18:20",0.0,6.9,78.2,1015.9,286.3,1.7,2.1,307.0,0.00,3.4,8.7,"18:16:08",1
"20/01/16","18:30",0.0,6.5,79.1,1016.1,297.8,2.3,3.7,337.3,0.00,3.2,8.9,"18:26:56",1
"20/01/16","18:40",0.0,6.3,79.9,1016.1,289.1,1.7,3.5,318.6,0.00,3.1,8.7,"18:32:40",1
"20/01/16","18:50",0.0,6.0,80.7,1016.1,284.2,1.8,2.2,299.4,0.00,3.0,8.7,"18:40:56",1
"20/01/16","19:00",0.0,5.7,81.5,1016.1,289.4,1.7,2.5,264.5,0.00,2.8,8.7,"18:50:08",1
"20/01/16","19:10",0.0,5.5,82.2,1016.1,289.7,1.6,2.0,312.3,0.00,2.8,8.5,"19:06:26",1
"20/01/16","19:20",0.0,5.4,82.9,1016.1,310.9,1.8,2.5,316.6,0.00,2.8,8.2,"19:10:56",1
"20/01/16","19:30",0.0,5.2,83.6,1015.9,307.9,2.0,2.6,312.8,0.00,2.7,8.2,"19:22:48",1
"20/01/16","19:40",0.0,4.9,84.3,1016.1,299.1,1.8,2.4,316.3,0.00,2.5,8.2,"19:34:56",1
"20/01/16","19:50",0.0,4.6,84.9,1016.1,290.7,1.7,3.1,310.3,0.00,2.3,8.1,"19:41:44",1
"20/01/16","20:00",0.0,4.4,85.5,1016.1,283.9,1.7,2.0,288.0,0.00,2.2,8.2,"19:59:20",1
"20/01/16","20:10",0.0,4.4,86.2,1016.4,282.3,1.8,2.2,304.8,0.00,2.3,8.0,"20:01:36",1
"20/01/16","20:20",0.0,4.4,86.7,1016.1,283.2,1.8,2.1,297.6,0.00,2.4,7.8,"20:10:08",1
"20/01/16","20:30",0.0,4.6,87.1,1016.1,293.3,2.1,3.9,331.4,0.00,2.7,8.0,"20:27:36",1
"20/01/16","20:40",0.0,4.8,87.4,1016.1,290.2,1.8,2.8,301.6,0.00,2.9,8.0,"20:30:16",1
"20/01/16","20:50",0.0,4.9,87.7,1016.1,316.0,1.7,2.8,310.9,0.00,3.1,7.9,"20:44:00",1
"20/01/16","21:00",0.0,4.8,87.9,1016.4,305.4,1.8,2.7,322.8,0.00,3.0,7.9,"20:57:52",1
"20/01/16","21:10",0.0,4.6,88.2,1016.1,304.4,1.5,2.4,316.3,0.00,2.9,7.8,"21:03:28",1
"20/01/16","21:20",0.0,4.7,88.4,1016.1,283.6,1.5,1.7,292.3,0.00,3.0,7.8,"21:15:12",1
"20/01/16","21:30",0.0,4.8,88.6,1016.4,304.8,1.2,2.2,334.4,0.00,3.1,7.5,"21:27:56",1
"20/01/16","21:40",0.0,4.7,88.7,1016.1,304.0,1.3,2.1,296.2,0.00,3.0,7.7,"21:38:18",1
"20/01/16","21:50",0.0,4.5,88.9,1016.6,310.9,1.8,2.5,322.2,0.00,2.9,7.8,"21:41:52",1
"20/01/16","22:00",0.0,4.2,89.1,1016.1,279.5,1.2,2.0,268.4,0.00,2.6,7.7,"21:54:40",1
"20/01/16","22:10",0.0,4.0,89.3,1016.1,300.6,1.7,2.4,314.4,0.00,2.4,7.7,"22:03:40",1
"20/01/16","22:20",0.0,3.8,89.6,1015.9,320.6,1.6,2.2,325.9,0.00,2.3,7.4,"22:11:20",1
"20/01/16","22:30",0.0,3.5,89.9,1015.9,303.5,1.7,2.6,307.4,0.00,2.0,7.6,"22:28:24",1
"20/01/16","22:40",0.0,3.5,90.2,1015.9,292.7,1.7,2.1,266.5,0.00,2.1,7.3,"22:33:52",1
"20/01/16","22:50",0.0,3.5,90.4,1016.4,313.9,2.0,3.6,316.9,0.00,2.1,7.2,"22:44:48",1
"20/01/16","23:00",0.0,3.4,90.6,1016.1,312.6,1.6,2.2,308.4,0.00,2.1,7.2,"22:52:24",1
"20/01/16","23:10",0.0,3.5,90.9,1015.9,322.4,2.6,4.2,321.5,0.00,2.2,7.1,"23:03:28",1
"20/01/16","23:20",0.0,3.7,91.1,1015.9,320.7,2.8,3.9,326.7,0.00,2.4,7.1,"23:11:28",1
"20/01/16","23:30",0.0,3.5,91.2,1015.9,301.7,2.0,2.8,309.3,0.00,2.2,7.1,"23:20:24",1
"20/01/16","23:40",0.0,3.5,91.3,1016.1,319.3,2.3,3.9,329.8,0.00,2.3,7.3,"23:33:04",1
"20/01/16","23:50",0.0,3.1,91.4,1016.1,302.9,0.8,2.2,321.7,0.00,1.9,7.1,"23:41:36",1
"20/01/16","24:00",0.0,2.5,91.6,1015.9,303.4,1.6,2.2,314.0,0.00,1.3,7.2,"23:56:56",1
